SCP
0 0 0 0 0 0 0 0 0 0 0 0 0 0 0 0 0 0 0 0 0 0 0 0 0 0 0 0 0 0 0 0 0 0 0 0 0 0 0 0 0 0 0 0
0 0 0 0 0 0 0 0 0 0 0 0 0 0 0 0 0 0 0 0 0 0 0 0 0 0 0 0 0 0 0 0 0 0 0 0 0 0 0 0 0 0 0 0
0 0 0 0 0 0 0 0 0 0 0 0 0 0 0 0 0 0 0 0 0 0 0 0 0 0 0 0 0 0 0 0 0 0 0 0 0 0 0 0 0 0 0 0
0 0 0 0 0 0 0 0 0 0 0 0 0 0 0 0 0 0 0 0 0 0 0 0 0 0 0 0 0 0 0 0 0 0 0 0 0 0 0 0 0 0 0 0
0 0 0 0 0 0 0 0 0 0 0 0 0 0 0 0 0 0 0 0 0 0 0 0 0 0 0 0 0 0 0 0 0 0 0 0 0 0 0 0 0 0 0 0
0 0 0 0 0 0 0 0 0 0 0 0 0 0 0 0 0 0 0 0 0 0 0 0 0 0 0 0 0 0 0 0 0 0 0 0 0 0 0 0 0 0 0 0
0 0 0 0 0 0 0 0 0 0 0 0 0 0 0 0 0 0 0 0 0 0 0 0 0 0 0 0 0 0 0 0 0 0 0 0 0 0 0 0 0 0 0 0
0 0 0 0 0 0 0 0 0 0 0 0 0 0 0 0 0 0 0 0 0 0 0 0 0 0 0 0 0 0 0 0 0 0 0 0 0 0 0 0 0 0 0 0
0 0 0 0 0 0 0 0 0 0 0 0 0 0 0 0 0 0 0 0 0 0 0 0 0 0 0 0 0 0 0 0 0 0 0 0 0 0 0 0 0 0 0 0
0 0 0 0 0 0 0 0 0 0 0 0 0 0 0 0 0 0 0 0 0 0 0 0 0 0 0 0 0 0 0 0 0 0 0 0 0 0 0 0 0 0 0 0
0 0 0 0 0 0 0 0 0 0 0 0 0 0 0 0 0 0 0 0 0 0 0 0 0 0 0 0 0 0 0 0 0 0 0 0 0 0 0 0 0 0 0 0
0 0 0 0 0 0 0 0 0 0 0 0 0 0 0 0 0 0 0 0 0 0 0 0 0 0 0 0 0 0 0 0 0 0 0 0 0 0 0 0 0 0 0 0
0 0 0 0 0 0 0 0 0 0 0 0 0 0 0 0 0 0 0 0 0 0 0 0 0 0 0 0 0 0 0 0 0 0 0 0 0 0 0 0 0 0 0 0
0 0 0 0 0 0 0 0 0 0 0 0 0 0 0 0 0 0 0 0 0 0 0 0 0 0 0 0 0 0 0 0 0 0 0 0 0 0 0 0 0 0 0 0
0 0 0 0 0 0 0 0 0 0 0 0 0 0 0 0 0 0 0 0 0 0 0 0 0 0 0 0 0 0 0 0 0 0 0 0 0 0 0 0 0 0 0 0
0 0 0 0 0 0 0 0 0 0 0 0 0 0 0 0 0 0 0 0 0 0 0 0 0 0 0 0 0 0 0 0 0 0 0 0 0 0 0 0 0 0 0 0
0 0 0 0 0 0 0 0 0 0 0 0 0 0 0 0 0 0 0 0 0 0 0 0 0 0 0 0 0 0 0 0 0 0 0 0 0 0 0 0 0 0 0 0
0 0 0 0 0 0 0 0 0 0 0 0 0 0 0 0 0 0 0 0 0 0 0 0 0 0 0 0 0 0 0 0 0 0 0 0 0 0 0 0 0 0 0 0
0 0 0 0 0 0 0 0 0 0 0 0 0 0 0 0 0 0 0 0 0 0 0 0 0 0 0 0 0 0 0 0 0 0 0 0 0 0 0 0 0 0 0 0
0 0 0 0 0 0 0 0 0 0 0 0 0 0 0 0 0 0 0 0 0 0 0 0 0 0 0 0 0 0 0 0 0 0 0 0 0 0 0 0 0 0 0 0
0 0 0 0 0 0 0 0 0 0 0 0 0 0 0 0 0 0 0 0 0 0 0 0 0 0 0 0 0 0 0 0 0 0 0 0 0 0 0 0 0 0 0 0
0 0 0 0 0 0 0 0 0 0 0 0 0 0 0 0 0 0 0 0 0 0 0 0 0 0 0 0 0 0 0 0 0 0 0 0 0 0 0 0 0 0 0 0
0 0 0 0 0 0 0 0 0 0 0 0 0 0 0 0 0 0 0 0 0 0 0 0 0 0 0 0 0 0 0 0 0 0 0 0 0 0 0 0 0 0 0 0
0 0 0 0 0 0 0 0 0 0 0 0 0 0 0 0 0 0 0 0 0 0 0 0 0 0 0 0 0 0 0 0 0 0 0 0 0 0 0 0 0 0 0 0
0 0 0 0 0 0 0 0 0 0 0 0 0 0 0 0 0 0 0 0 0 0 0 0 0 0 0 0 0 0 0 0 0 0 0 0 0 0 0 0 0 0 0 0
0 0 0 0 0 0 0 0 0 0 0 0 0 0 0 0 0 0 0 0 0 0 0 0 0 0 0 0 0 0 0 0 0 0 0 0 0 0 0 0 0 0 0 0
Wind_Speed
8 5 5 6 6 4 4 3 3 2 4 5 5 5 6 9 8 8 8 8 9 9 8 8 7 6 5 4 4 5 4 4 3 2 2 2 1 1 2 2 3 3 4 4
5 7 6 5 4 6 6 5 3 3 4 4 4 5 6 9 10 9 9 8 7 7 9 8 7 6 5 5 4 5 5 5 4 2 2 2 2 1 3 2 3 3 4 4
7 4 5 6 6 6 6 5 4 4 4 5 5 5 6 8 9 10 9 8 7 8 9 9 8 6 5 5 5 4 4 5 4 3 2 2 2 2 2 2 2 3 3 4
5 6 6 6 6 7 5 4 5 5 6 5 6 4 6 8 9 10 10 8 7 7 8 9 8 7 6 5 5 5 5 6 5 4 3 3 2 1 1 2 2 2 3 3
5 5 6 6 6 6 4 4 6 8 7 6 6 5 4 7 9 10 10 10 9 8 8 9 9 8 7 6 6 5 5 6 6 5 4 3 2 1 1 2 2 2 2 2
6 6 6 5 5 4 4 5 7 7 6 7 7 5 3 4 8 10 11 10 10 10 9 9 9 8 6 6 6 5 5 5 5 5 5 4 4 2 2 2 1 1 1 1
8 9 7 6 7 7 7 4 3 4 5 5 5 5 3 3 4 6 8 9 10 9 9 9 9 8 7 7 7 6 5 5 5 4 5 5 5 4 4 2 2 1 2 1
7 7 8 7 7 6 7 7 5 3 4 3 3 3 2 5 4 4 7 8 9 9 8 8 9 8 8 8 7 7 6 5 5 4 3 4 5 3 2 2 2 2 2 2
4 3 4 4 5 7 7 7 8 7 7 5 3 2 2 5 6 5 6 8 8 9 9 9 9 9 8 8 7 7 7 6 6 5 4 3 4 3 3 3 2 2 2 2
5 5 5 5 6 8 10 8 5 5 4 4 3 4 3 6 6 5 5 7 8 9 9 9 9 9 9 8 7 7 6 6 6 5 4 3 4 3 3 2 2 2 2 2
6 6 5 5 7 8 9 9 6 5 5 4 2 1 1 4 5 5 5 5 6 8 8 8 8 9 9 8 8 7 6 6 6 5 5 5 4 3 3 3 3 3 3 2
4 5 6 8 8 9 8 8 7 5 5 5 3 1 1 4 4 4 4 4 5 6 7 7 7 8 8 8 8 7 7 6 6 5 5 6 5 4 3 3 3 3 3 3
3 4 5 5 6 8 8 8 8 7 6 5 5 2 1 4 3 3 3 4 4 5 6 7 7 7 7 7 7 7 7 7 6 6 5 6 5 4 3 3 3 3 3 3
3 7 7 7 4 4 7 8 8 8 6 6 5 3 2 1 2 2 2 3 4 4 5 6 6 7 6 7 7 7 7 7 7 6 5 6 5 5 4 3 3 3 3 3
5 8 8 9 8 8 9 9 10 10 9 8 6 5 4 2 2 2 2 2 3 4 4 5 6 6 6 7 7 6 6 6 7 7 6 5 5 5 4 3 3 2 2 3
7 8 8 10 10 9 11 11 11 12 11 10 8 6 3 1 1 1 1 2 3 3 4 5 6 6 6 6 6 6 6 7 7 7 6 6 6 5 4 4 3 2 2 2
7 8 8 8 8 10 11 10 10 9 9 9 8 5 2 2 2 1 1 1 2 2 2 3 4 5 6 6 7 7 7 6 7 7 6 6 6 6 5 4 4 3 3 2
8 8 5 7 7 9 4 2 4 6 6 5 5 2 2 2 1 1 1 1 1 2 2 3 3 3 4 5 6 7 7 7 7 7 7 7 6 6 5 5 4 4 3 2
7 6 5 5 7 8 5 4 5 6 6 4 4 2 2 2 1 1 1 1 0 0 1 2 2 2 3 3 4 6 7 7 6 6 7 7 6 6 6 5 5 4 3 3
7 7 6 5 6 6 2 2 3 4 5 2 2 2 2 1 2 1 0 1 1 0 0 1 2 2 2 2 3 5 6 7 7 6 7 7 6 6 6 5 5 3 3 3
8 8 9 8 8 6 3 1 1 4 1 1 2 2 2 2 2 1 2 2 2 1 1 1 1 1 1 2 3 5 5 5 6 6 6 6 6 6 6 5 4 4 3 3
7 6 8 7 8 6 1 2 3 1 1 2 2 2 2 1 1 1 2 2 2 2 1 1 1 1 1 1 2 3 4 4 5 6 6 6 6 6 5 5 4 4 4 4
5 5 3 4 4 2 3 2 2 2 2 2 2 3 2 2 1 1 2 2 2 2 2 1 1 1 1 1 1 3 3 4 5 6 6 6 6 5 5 6 5 4 4 3
4 4 4 4 4 3 3 4 3 4 4 3 2 3 3 2 1 1 1 1 2 2 2 2 2 2 2 1 1 2 3 4 5 5 5 5 5 5 5 4 4 4 4 4
4 4 6 6 5 4 4 4 4 4 4 3 2 3 2 2 2 1 1 2 2 2 2 2 2 2 2 2 2 2 2 4 4 5 5 5 4 5 4 4 3 4 4 5
5 6 7 5 5 5 4 3 4 4 4 4 3 3 2 1 1 1 1 1 2 2 2 2 2 2 2 2 2 2 2 3 4 4 4 4 4 4 4 4 2 2 3 5
Wind_Direction
204 213 224 223 231 245 255 254 244 222 199 214 215 212 192 185 190 190 189 189 182 174 170 157 153 153 155 141 127 122 125 113 111 102 97 96 87 73 71 57 52 48 40 40
208 221 229 233 228 233 242 250 238 215 212 230 227 222 203 194 192 194 193 192 183 169 165 157 158 162 159 141 133 134 128 125 120 108 118 123 108 91 88 63 47 42 46 37
217 215 206 218 229 236 241 251 248 240 242 238 252 243 215 196 192 189 196 191 184 178 172 165 164 163 156 150 152 145 136 129 122 126 103 87 70 49 79 88 64 43 55 51
228 232 230 221 235 250 247 256 263 247 250 244 230 255 228 196 190 187 190 189 182 184 175 164 166 166 165 159 153 151 149 141 138 136 127 133 131 120 115 117 120 93 74 68
230 221 231 237 239 257 260 261 257 258 258 261 243 251 237 188 189 189 186 186 184 183 180 169 168 168 168 156 154 160 150 143 146 149 137 141 127 131 109 101 113 110 100 89
245 251 242 249 245 246 254 264 260 250 257 255 243 235 233 203 192 184 182 182 181 184 182 172 164 162 164 154 150 153 148 141 143 146 148 158 134 124 108 106 126 141 122 107
232 229 227 232 242 222 227 244 250 229 222 234 230 226 201 155 152 166 173 174 175 179 178 168 162 162 160 155 154 156 150 148 152 164 166 163 153 157 154 153 160 145 112 94
243 229 214 218 235 245 228 224 238 254 251 258 243 230 144 132 127 148 160 161 167 170 169 166 165 163 161 159 160 163 161 158 161 173 172 165 152 156 151 162 157 140 117 116
268 238 193 223 249 255 248 238 250 273 282 269 222 205 160 154 147 154 158 157 163 169 169 169 165 161 162 165 168 171 165 163 167 177 177 168 152 151 152 167 147 131 133 141
276 270 226 217 243 244 257 264 265 253 267 261 235 229 195 163 153 146 151 160 164 167 171 170 166 165 167 168 168 170 166 167 168 171 174 158 146 150 150 146 135 129 125 124
277 265 241 229 235 241 238 241 249 261 259 262 253 259 100 127 140 151 149 148 160 166 169 168 166 165 164 162 165 169 170 167 166 171 167 151 150 153 158 152 147 141 145 155
266 272 252 237 244 254 256 251 241 246 261 264 263 240 152 129 133 131 134 137 144 156 160 159 156 155 159 165 168 171 175 171 167 170 163 153 155 151 159 155 153 155 153 146
298 264 262 244 235 233 236 247 246 247 257 256 253 229 159 115 105 100 118 129 137 146 152 152 151 153 160 166 169 172 172 170 162 162 156 146 149 151 160 161 155 156 150 138
282 252 251 252 261 269 254 253 258 253 250 255 251 244 239 154 122 106 113 138 139 149 157 154 152 156 160 168 169 173 170 163 156 157 154 150 157 157 164 166 160 165 157 146
247 257 261 268 271 271 272 260 254 255 254 252 257 262 263 230 179 157 150 153 143 152 159 159 159 162 164 171 171 169 166 161 158 158 159 156 154 152 160 163 163 161 155 152
234 258 261 262 264 265 263 260 255 254 257 249 253 256 260 227 129 112 127 148 149 162 171 165 165 163 167 174 169 162 165 167 163 163 162 155 154 152 159 159 154 146 136 132
233 251 264 261 261 273 259 247 242 247 251 246 251 257 247 228 152 157 172 156 164 163 159 154 167 171 177 177 171 170 173 169 163 161 156 155 159 157 166 165 157 159 160 148
242 248 252 263 261 252 252 250 226 241 256 264 261 254 267 259 179 137 122 157 159 156 181 175 178 177 185 178 173 171 171 167 165 163 160 159 163 162 168 170 168 170 168 168
237 241 249 257 264 265 256 243 227 231 249 256 265 268 275 286 188 152 109 120 138 142 169 170 182 182 176 176 170 167 168 166 166 165 163 164 164 163 168 173 175 174 172 172
220 233 241 245 257 260 252 225 241 240 239 266 272 268 262 253 228 202 163 128 106 44 131 153 166 176 167 165 163 165 170 168 170 166 164 162 164 165 172 176 174 174 173 176
209 221 231 245 251 260 284 276 197 231 242 339 284 281 263 242 275 180 154 124 118 100 122 134 143 164 169 161 156 166 168 171 166 158 157 158 163 168 171 168 168 173 174 176
220 223 226 236 245 248 279 209 212 283 20 336 318 311 306 329 328 131 129 118 124 118 129 131 133 141 154 160 161 168 171 161 149 150 154 160 164 169 166 159 168 173 171 176
229 232 234 232 236 310 329 296 307 326 301 304 318 321 316 304 276 144 145 152 151 154 155 147 145 156 163 185 176 168 160 145 143 146 153 159 163 163 160 162 170 172 174 179
261 266 248 245 247 263 303 316 314 314 320 319 306 299 301 298 277 151 160 171 172 165 159 161 176 192 194 196 188 170 151 147 147 154 159 160 159 159 162 163 171 176 184 188
279 285 267 262 274 290 287 308 324 325 324 314 286 268 266 277 279 192 194 197 193 171 158 178 200 201 203 190 196 167 162 163 162 163 162 160 160 162 162 161 175 183 191 192
252 257 261 260 264 267 273 290 304 315 315 308 299 290 278 275 255 245 222 198 190 183 172 181 202 205 203 196 197 171 172 172 170 170 167 163 163 162 162 161 162 181 191 182